Hourly Data Report for September 29, 2017

All times are specified in Local Standard Time (LST). Add 1 hour to adjust for Daylight Saving Time where and when it is observed.

IQALUIT CLIMATE
NUNAVUT

63°44'50.000" N
68°32'40.000" W
33.50 m
2402592
71321
XFB

Download Data

Hourly Data (September 2017)
Hourly Data Report for September 29, 2017
Temp Definition
°C
Dew Point Temp Definition
°C
Rel Hum Definition
%
Wind Dir Definition
10's deg

Wind Spd Definition
km/h
Visibility Definition
km
Stn Press Definition
kPa
Hmdx Definition


Wind Chill Definition


Weather Definition


TIME
00:00 -0.5 -4.1 77 34 28   100.89   -7 LegendNANA
01:00 -0.9 -5.2 73 34 30   100.92   -8 LegendNANA
02:00 -1.9 -5.0 80 33 16   100.94   -7 LegendNANA
03:00 -2.5 -6.3 75 34 21   101.00   -9 LegendNANA
04:00 -2.1 -5.8 76 31 9   101.02   -6 LegendNANA
05:00 -1.6 -5.4 75 32 21   101.04   -7 LegendNANA
06:00 -2.2 -6.9 70 32 19   101.07   -8 LegendNANA
07:00 -2.1 -5.7 77 31 16   101.10   -7 LegendNANA
08:00 -1.5 -5.4 75 31 22   101.11   -7 LegendNANA
09:00 -0.5 -6.8 62 33 24   101.11   -6 LegendNANA
10:00 -0.4 -7.2 60 32 25   101.09   -6 LegendNANA
11:00 -1.3 -4.8 77 31 21   101.11   -7 LegendNANA
12:00 -0.6 -6.0 67 33 24   101.10   -7 LegendNANA
13:00 -0.9 -6.0 69 34 21   101.08   -7 LegendNANA
14:00 -0.3 -7.8 57 31 23   101.08   -6 LegendNANA
15:00 -1.2 -6.7 66 32 17   101.05   -6 LegendNANA
16:00 -1.9 -5.4 77 36 20   101.03   -8 LegendNANA
17:00 -2.1 -6.4 72 31 15   101.00   -7 LegendNANA
18:00 -2.3 -6.5 73 30 14   100.97   -7 LegendNANA
19:00 -2.6 -6.3 76 28 10   100.90   -6 LegendNANA
20:00 -2.9 -6.3 77 27 7   100.82   -6 LegendNANA
21:00 -3.1 -6.2 80   0   100.74     LegendNANA
22:00 -3.0 -5.4 83 27 1   100.65   -3 LegendNANA
23:00 -3.0 -5.9 81 10 3   100.55   -4 LegendNANA

Notes on Data Quality.

Legend

  • E = Estimated
  • M = Missing
  • NA = Not Available
  • ‡ = Partner data that is not subject to review by the National Climate Archives
Date modified: